Location: Bluff Heights
(33.7692°N, 118.1592°W)
Time: 01:50:39
(UTC+00:00)

deb Explorer IX - Pass Details

Date: 03 August 2021
Orbit: 545 x 1091 km, 38.8° (Epoch: 22 September)

Event Time Altitude Azimuth Distance (km) Brightness Sun altitude
Rises 03:07:41 0° 278° (W) 3,565 ? -3.9°
Reaches altitude 10° 03:11:01 10° 260° (W) 2,713 ? -4.5°
Maximum altitude 03:15:21 18° 219° (SW) 2,251 ? -5.3°
Drops below altitude 10° 03:19:56 10° 179° (S) 2,882 ? -6.2°
Sets 03:23:39 0° 162° (SSE) 3,870 ? -6.9°
